Flag for Canada Weather past 2 weeks in Rae-Edzo, Northwest Territories, Canada

Now
7 °F

Frigid.


Feels Like: 7 °F
Forecast: 6 / 11 °F
Wind: 2 mph from Northeast

Location: Lac La Martre

Current Time: Dec 21, 2014 at 2:35:43 PM

Latest Report: Dec 21, 2014 at 2:00 PM


Visibility: N/A

Pressure: 29.74 "Hg

Humidity: 89%

Dew point: 4 °F

Location of Rae-EdzoLocation

Historic Weather in Rae-Edzo — Graph

°F

Rae-Edzo temperature yesterday

Maximum temperature yesterday: 13 °F (at 4:00 AM)
Minimum temperature yesterday: 6 °F (at 1:00 PM)
Average temperature yesterday: 11 °F

Past Weeks' High & Low Weather Summary

 TemperatureHumidityPressure
High13 °F (Dec 20, 4:00 AM)98% (Dec 20, 5:00 AM)30.50 "Hg (Dec 20, 5:00 AM)
Low-23 °F (Dec 8, 1:00 AM)65% (Dec 6, 1:00 PM)29.40 "Hg (Dec 9, 3:00 PM)
Average0 °F85%29.84 "Hg
* Reported Dec 6 1:00 PM — Dec 21 1:00 PM, Rae-Edzo, Weather by CustomWeather, © 2014

Note: Actual official high and low records may vary slightly from our data, if they occured in-between our weather recording intervals... More about our weather records

Advertising

Rae-Edzo weather history for previous 24 hours

 ConditionsComfort  
Time TempWeatherWind HumidityBarometerVisibility
1:00 PM
Dec 21
7 °FFrigid.2 mph89%29.72 "HgN/A
12:00 PM8 °FFrigid.2 mph89%29.71 "HgN/A
11:00 AM8 °FFrigid.2 mph89%29.70 "HgN/A
10:00 AM9 °FFrigid.2 mph90%29.68 "HgN/A
9:00 AM9 °FFrigid.2 mph90%29.66 "HgN/A
8:00 AM10 °FFrigid.3 mph90%29.65 "HgN/A
7:00 AM10 °FCold.3 mph90%29.65 "HgN/A
6:00 AM12 °FCold.2 mph91%29.64 "HgN/A
5:00 AM13 °FCold.3 mph91%29.63 "HgN/A
4:00 AM13 °FCold.2 mph92%29.61 "HgN/A
3:00 AM13 °FCold.1 mph92%29.60 "HgN/A
2:00 AM12 °FCold.No wind92%29.59 "HgN/A
1:00 AM12 °FCold.No wind91%29.59 "HgN/A
12:00 AM12 °FCold.No wind91%29.58 "HgN/A
11:00 PM
Dec 20
12 °FCold.No wind98%29.58 "HgN/A
10:00 PM12 °FCold.No wind98%29.57 "HgN/A
9:00 PM11 °FCold.No wind90%29.56 "HgN/A
8:00 PM11 °FCold.1 mph91%29.56 "HgN/A
7:00 PM11 °FCold.1 mph91%29.57 "HgN/A
6:00 PM11 °FCold.1 mph91%29.56 "HgN/A
5:00 PM10 °FCold.1 mph91%29.55 "HgN/A
4:00 PM10 °FFrigid.1 mph90%29.55 "HgN/A
3:00 PM10 °FFrigid.2 mph90%29.54 "HgN/A
2:00 PM9 °FFrigid.1 mph89%29.54 "HgN/A
Weather by CustomWeather, © 2014

See weather overviewHow to use our weather pages